{"data":{"norad_id":54252,"epoch":"2026-05-25T05:05:31.952832Z","epoch_age_seconds":67161,"freshness":"FRESH","line1":"1 54252U 22155B   26145.21217538  .00044332  00000+0  55251-3 0  9996","line2":"2 54252  97.6191 288.3130 0004660  88.8274 271.3516 15.59779994196164","mean_motion":15.59779994,"eccentricity":0.000466,"inclination_deg":97.6191,"raan_deg":288.313,"arg_perigee_deg":88.8274,"mean_anomaly_deg":271.3516,"bstar":0.00055251,"rev_number":19616,"period_min":92.320712250397,"perigee_km":385.14011667093,"apogee_km":391.44642968553,"semimajor_km":6766.4302731782,"source":"CELESTRAK","updated_at":"2026-05-25T13:37:58.665239Z"}}